Location: ?????
(30.4569°N, 47.8921°E)
Time: 05:24:53
(UTC+00:00)

Cosmos 2344 - Pass Details

Date: 07 June 2020
Orbit: 1250 x 2992 km, 63.3° (Epoch: 03 July)

Event Time Altitude Azimuth Distance (km) Brightness Sun altitude
Exits shadow 01:00:15 11° 229° (SW) 3,324 5.1 -9.3°
Maximum altitude 01:07:36 51° 303° (WNW) 1,534 3.9 -8.0°
Drops below altitude 10° 01:15:00 10° 19° (NNE) 3,322 6.6 -6.6°
Sets 01:18:02 0° 25° (NNE) 4,400 7.5 -6.1°
